Location: Unspecified
(48.2082°N, 0.0000°E)
Time: 19:11:05
(UTC+00:00)

A-11 Canister half - Pass Details

Date: 22 June 2019
Orbit: 1515 x 1685 km, 47.2° (Epoch: 15 July)

Event Time Altitude Azimuth Distance (km) Brightness Sun altitude
Rises 11:26:40 0° 240° (WSW) 4,895 11.7 64.3°
Reaches altitude 10° 11:29:52 10° 238° (WSW) 3,891 11.4 64.4°
Maximum altitude 11:39:42 69° 158° (SSE) 1,703 12.3 64.8°
Drops below altitude 10° 11:49:11 10° 78° (ENE) 3,765 11.2 65.1°
Sets 11:52:13 0° 76° (ENE) 4,729 11.5 65.2°
